QPF
0.00 0.00 0.00 0.00 0.02 0.03 0.02 0.00 0.00 0.00 0.00 0.00 0.00 0.00 0.00 0.00 0.01 0.04 0.02 0.00 0.01 0.02 0.02 0.03 0.04 0.03 0.02 0.02 0.02 0.02 0.01 0.01 0.01 0.01 0.01 0.02 0.02 0.02 0.03 0.05 0.08 0.10 0.12 0.14 0.11 0.10 0.10 0.10 0.09
0.00 0.00 0.00 0.00 0.04 0.05 0.02 0.00 0.00 0.00 0.00 0.00 0.00 0.00 0.00 0.00 0.00 0.02 0.03 0.00 0.01 0.03 0.02 0.01 0.03 0.03 0.02 0.02 0.02 0.02 0.01 0.01 0.02 0.02 0.02 0.02 0.03 0.03 0.03 0.03 0.04 0.06 0.09 0.14 0.16 0.16 0.12 0.10 0.10
0.00 0.00 0.00 0.01 0.03 0.03 0.02 0.00 0.00 0.00 0.00 0.00 0.00 0.00 0.00 0.00 0.01 0.01 0.03 0.02 0.01 0.03 0.02 0.01 0.02 0.02 0.02 0.02 0.02 0.02 0.01 0.01 0.01 0.02 0.02 0.02 0.03 0.03 0.03 0.03 0.03 0.04 0.05 0.10 0.20 0.19 0.14 0.11 0.13
0.00 0.00 0.00 0.01 0.01 0.01 0.00 0.00 0.00 0.00 0.00 0.00 0.00 0.00 0.00 0.00 0.00 0.01 0.02 0.04 0.02 0.03 0.01 0.00 0.01 0.02 0.02 0.02 0.02 0.02 0.01 0.01 0.01 0.01 0.01 0.02 0.03 0.04 0.03 0.04 0.04 0.05 0.05 0.07 0.08 0.08 0.09 0.09 0.08
0.00 0.00 0.00 0.01 0.01 0.00 0.00 0.00 0.00 0.00 0.00 0.00 0.00 0.00 0.00 0.00 0.00 0.00 0.01 0.02 0.02 0.03 0.03 0.01 0.00 0.01 0.02 0.02 0.02 0.02 0.02 0.02 0.01 0.01 0.01 0.02 0.02 0.02 0.03 0.03 0.04 0.05 0.06 0.06 0.06 0.06 0.06 0.07 0.05
0.00 0.00 0.01 0.02 0.01 0.00 0.00 0.00 0.00 0.00 0.00 0.00 0.00 0.00 0.00 0.00 0.00 0.00 0.00 0.01 0.01 0.02 0.02 0.03 0.02 0.01 0.01 0.01 0.02 0.02 0.02 0.01 0.01 0.02 0.02 0.02 0.02 0.02 0.02 0.03 0.04 0.04 0.05 0.06 0.06 0.07 0.05 0.05 0.05
0.00 0.00 0.01 0.01 0.01 0.00 0.00 0.00 0.00 0.00 0.00 0.00 0.00 0.01 0.00 0.00 0.00 0.00 0.00 0.01 0.01 0.01 0.02 0.03 0.05 0.04 0.02 0.02 0.01 0.01 0.01 0.02 0.02 0.02 0.01 0.01 0.02 0.02 0.02 0.02 0.02 0.02 0.04 0.05 0.05 0.06 0.05 0.05 0.05
0.00 0.00 0.01 0.01 0.00 0.00 0.00 0.00 0.00 0.00 0.00 0.00 0.00 0.01 0.01 0.00 0.00 0.00 0.00 0.00 0.00 0.00 0.01 0.03 0.05 0.07 0.06 0.04 0.01 0.01 0.01 0.01 0.01 0.02 0.01 0.02 0.02 0.02 0.03 0.02 0.02 0.05 0.06 0.05 0.05 0.05 0.04 0.05 0.06
0.00 0.00 0.00 0.01 0.00 0.00 0.00 0.00 0.00 0.00 0.00 0.00 0.00 0.00 0.00 0.00 0.00 0.00 0.00 0.00 0.00 0.00 0.00 0.01 0.03 0.07 0.07 0.05 0.03 0.02 0.01 0.01 0.02 0.02 0.01 0.03 0.04 0.04 0.04 0.03 0.06 0.12 0.08 0.05 0.06 0.05 0.05 0.05 0.06
0.01 0.01 0.00 0.00 0.00 0.00 0.00 0.00 0.00 0.00 0.01 0.01 0.01 0.01 0.01 0.00 0.00 0.00 0.00 0.00 0.00 0.00 0.00 0.00 0.01 0.03 0.08 0.09 0.05 0.06 0.05 0.04 0.05 0.05 0.05 0.07 0.07 0.05 0.04 0.07 0.12 0.23 0.17 0.10 0.08 0.05 0.06 0.07 0.09
0.00 0.00 0.00 0.00 0.00 0.00 0.00 0.00 0.00 0.00 0.02 0.04 0.01 0.01 0.00 0.00 0.00 0.00 0.00 0.00 0.00 0.00 0.00 0.00 0.00 0.01 0.04 0.12 0.12 0.06 0.06 0.06 0.06 0.06 0.06 0.06 0.05 0.04 0.06 0.11 0.17 0.28 0.33 0.26 0.16 0.11 0.09 0.08 0.10
0.00 0.00 0.00 0.00 0.00 0.00 0.00 0.00 0.00 0.00 0.01 0.02 0.00 0.00 0.01 0.00 0.00 0.00 0.00 0.00 0.00 0.00 0.00 0.00 0.00 0.01 0.01 0.06 0.13 0.08 0.05 0.06 0.06 0.06 0.06 0.05 0.05 0.05 0.07 0.10 0.14 0.22 0.30 0.32 0.24 0.16 0.13 0.12 0.11
0.00 0.00 0.00 0.00 0.00 0.00 0.00 0.00 0.00 0.00 0.00 0.00 0.00 0.00 0.01 0.01 0.00 0.01 0.01 0.00 0.00 0.01 0.01 0.01 0.01 0.01 0.02 0.03 0.08 0.11 0.07 0.06 0.05 0.05 0.05 0.05 0.05 0.05 0.05 0.06 0.08 0.10 0.13 0.16 0.16 0.15 0.14 0.14 0.12
0.00 0.00 0.00 0.00 0.00 0.00 0.00 0.00 0.00 0.00 0.00 0.00 0.00 0.00 0.00 0.01 0.00 0.00 0.01 0.01 0.00 0.01 0.01 0.02 0.01 0.01 0.02 0.03 0.06 0.11 0.13 0.09 0.06 0.05 0.04 0.03 0.04 0.06 0.06 0.07 0.07 0.08 0.08 0.10 0.11 0.12 0.12 0.13 0.11
0.00 0.00 0.00 0.00 0.00 0.00 0.00 0.02 0.01 0.00 0.00 0.00 0.00 0.01 0.00 0.00 0.00 0.00 0.01 0.01 0.01 0.01 0.01 0.01 0.01 0.01 0.01 0.02 0.04 0.08 0.11 0.10 0.06 0.05 0.04 0.03 0.04 0.06 0.06 0.07 0.07 0.07 0.08 0.08 0.07 0.08 0.08 0.08 0.08
0.00 0.00 0.02 0.01 0.00 0.00 0.00 0.02 0.01 0.00 0.00 0.00 0.00 0.01 0.01 0.00 0.00 0.00 0.00 0.01 0.00 0.01 0.01 0.01 0.01 0.01 0.02 0.02 0.04 0.06 0.07 0.06 0.05 0.06 0.06 0.04 0.05 0.06 0.06 0.08 0.08 0.08 0.07 0.07 0.06 0.06 0.06 0.07 0.06
0.00 0.00 0.02 0.01 0.00 0.00 0.00 0.01 0.01 0.00 0.00 0.00 0.01 0.01 0.01 0.01 0.00 0.00 0.00 0.00 0.00 0.00 0.01 0.02 0.03 0.03 0.02 0.02 0.03 0.05 0.07 0.08 0.08 0.08 0.08 0.07 0.05 0.04 0.04 0.07 0.08 0.07 0.06 0.06 0.06 0.07 0.08 0.08 0.10
0.00 0.00 0.00 0.01 0.00 0.00 0.00 0.00 0.01 0.01 0.00 0.00 0.00 0.01 0.00 0.01 0.01 0.01 0.00 0.00 0.00 0.00 0.01 0.01 0.02 0.02 0.02 0.02 0.03 0.04 0.06 0.07 0.08 0.08 0.08 0.08 0.07 0.05 0.05 0.07 0.08 0.07 0.06 0.08 0.08 0.08 0.10 0.10 0.11
0.00 0.00 0.00 0.00 0.00 0.00 0.00 0.00 0.00 0.01 0.00 0.00 0.00 0.01 0.00 0.01 0.01 0.01 0.02 0.01 0.00 0.01 0.01 0.01 0.02 0.02 0.02 0.03 0.02 0.03 0.04 0.05 0.07 0.07 0.06 0.06 0.08 0.07 0.06 0.06 0.07 0.07 0.07 0.09 0.08 0.09 0.10 0.11 0.11
0.00 0.00 0.00 0.00 0.00 0.00 0.00 0.00 0.00 0.00 0.00 0.00 0.01 0.02 0.00 0.01 0.01 0.01 0.02 0.01 0.00 0.01 0.01 0.01 0.01 0.02 0.02 0.02 0.02 0.02 0.03 0.04 0.06 0.07 0.09 0.08 0.08 0.06 0.05 0.05 0.07 0.08 0.08 0.09 0.08 0.09 0.10 0.11 0.12
0.00 0.00 0.00 0.00 0.00 0.00 0.00 0.02 0.02 0.01 0.01 0.00 0.00 0.01 0.01 0.01 0.01 0.01 0.02 0.02 0.02 0.02 0.02 0.01 0.01 0.01 0.02 0.03 0.03 0.03 0.04 0.04 0.06 0.07 0.09 0.08 0.08 0.05 0.04 0.04 0.05 0.07 0.08 0.09 0.09 0.09 0.11 0.12 0.14
0.00 0.00 0.00 0.00 0.00 0.00 0.01 0.06 0.06 0.03 0.01 0.01 0.01 0.00 0.01 0.02 0.03 0.03 0.02 0.02 0.02 0.03 0.03 0.03 0.02 0.02 0.03 0.03 0.04 0.04 0.05 0.06 0.07 0.08 0.08 0.09 0.08 0.06 0.05 0.05 0.05 0.07 0.09 0.10 0.08 0.09 0.10 0.13 0.15
0.00 0.00 0.00 0.00 0.00 0.00 0.02 0.06 0.08 0.04 0.02 0.01 0.02 0.00 0.01 0.02 0.04 0.05 0.04 0.02 0.01 0.02 0.02 0.02 0.02 0.02 0.02 0.03 0.04 0.05 0.05 0.06 0.07 0.09 0.09 0.09 0.08 0.07 0.06 0.07 0.07 0.07 0.09 0.10 0.10 0.08 0.07 0.10 0.14
0.00 0.00 0.00 0.00 0.00 0.00 0.01 0.03 0.06 0.05 0.03 0.02 0.01 0.01 0.04 0.05 0.04 0.03 0.03 0.02 0.01 0.02 0.02 0.02 0.02 0.02 0.02 0.02 0.03 0.04 0.05 0.07 0.09 0.09 0.09 0.08 0.08 0.08 0.08 0.09 0.11 0.10 0.10 0.11 0.10 0.08 0.06 0.07 0.10
0.00 0.00 0.01 0.02 0.01 0.01 0.01 0.02 0.05 0.04 0.03 0.01 0.01 0.01 0.04 0.07 0.04 0.02 0.01 0.01 0.01 0.02 0.05 0.03 0.02 0.02 0.03 0.03 0.04 0.03 0.04 0.05 0.07 0.07 0.07 0.07 0.08 0.08 0.10 0.10 0.11 0.10 0.10 0.10 0.10 0.09 0.08 0.07 0.09
0.00 0.00 0.01 0.02 0.02 0.01 0.01 0.02 0.05 0.05 0.02 0.01 0.01 0.01 0.02 0.02 0.02 0.02 0.01 0.02 0.02 0.02 0.02 0.02 0.01 0.02 0.02 0.03 0.04 0.03 0.04 0.05 0.05 0.06 0.05 0.06 0.07 0.08 0.09 0.10 0.10 0.08 0.08 0.09 0.11 0.10 0.09 0.09 0.08
0.00 0.00 0.00 0.01 0.01 0.01 0.01 0.01 0.02 0.02 0.03 0.03 0.02 0.01 0.01 0.01 0.01 0.00 0.00 0.01 0.00 0.01 0.01 0.01 0.01 0.02 0.02 0.02 0.03 0.04 0.04 0.04 0.05 0.06 0.05 0.05 0.07 0.08 0.07 0.06 0.06 0.06 0.07 0.07 0.09 0.10 0.10 0.11 0.09
0.00 0.00 0.00 0.01 0.01 0.01 0.02 0.03 0.03 0.05 0.05 0.02 0.01 0.00 0.00 0.00 0.00 0.00 0.00 0.00 0.00 0.01 0.01 0.02 0.02 0.02 0.02 0.02 0.02 0.02 0.03 0.04 0.05 0.06 0.06 0.06 0.06 0.08 0.08 0.06 0.05 0.05 0.06 0.07 0.08 0.09 0.09 0.09 0.09
0.00 0.00 0.00 0.01 0.01 0.03 0.04 0.04 0.03 0.04 0.02 0.01 0.01 0.00 0.00 0.00 0.00 0.00 0.00 0.00 0.01 0.01 0.02 0.03 0.04 0.03 0.02 0.02 0.02 0.02 0.02 0.03 0.03 0.03 0.04 0.05 0.04 0.05 0.07 0.07 0.08 0.07 0.07 0.08 0.09 0.09 0.10 0.09 0.09
0.00 0.00 0.00 0.01 0.01 0.02 0.03 0.04 0.02 0.02 0.02 0.01 0.01 0.01 0.00 0.01 0.01 0.00 0.00 0.00 0.00 0.01 0.02 0.02 0.03 0.03 0.02 0.02 0.01 0.02 0.02 0.02 0.03 0.03 0.04 0.05 0.04 0.04 0.05 0.07 0.07 0.06 0.07 0.08 0.08 0.07 0.08 0.08 0.09
MSLP
1005.81 1006.40 1006.92 1007.21 1007.17 1006.75 1006.00 1005.05 1004.07 1003.24 1002.68 1002.44 1002.48 1002.72 1003.00 1003.22 1003.28 1003.16 1002.94 1002.72 1002.60 1002.70 1003.05 1003.63 1004.34 1005.08 1005.72 1006.17 1006.42 1006.48 1006.44 1006.37 1006.36 1006.45 1006.65 1006.90 1007.16 1007.36 1007.46 1007.45 1007.36 1007.22 1007.11 1007.05 1007.09 1007.21 1007.43 1007.72 1008.09
1006.05 1006.63 1007.04 1007.17 1006.93 1006.31 1005.40 1004.34 1003.31 1002.46 1001.90 1001.66 1001.68 1001.88 1002.12 1002.30 1002.36 1002.30 1002.21 1002.17 1002.28 1002.61 1003.17 1003.90 1004.70 1005.45 1006.05 1006.43 1006.59 1006.58 1006.49 1006.42 1006.42 1006.54 1006.77 1007.03 1007.28 1007.45 1007.52 1007.47 1007.34 1007.19 1007.08 1007.05 1007.11 1007.28 1007.53 1007.85 1008.24
1006.28 1006.79 1007.07 1007.01 1006.57 1005.77 1004.74 1003.61 1002.56 1001.74 1001.21 1000.98 1000.99 1001.14 1001.31 1001.42 1001.45 1001.43 1001.43 1001.54 1001.85 1002.40 1003.15 1004.04 1004.93 1005.71 1006.29 1006.62 1006.72 1006.67 1006.55 1006.46 1006.47 1006.60 1006.83 1007.09 1007.32 1007.46 1007.49 1007.42 1007.29 1007.16 1007.08 1007.09 1007.22 1007.44 1007.75 1008.12 1008.55
1006.45 1006.86 1006.99 1006.74 1006.12 1005.20 1004.09 1002.96 1001.96 1001.20 1000.74 1000.54 1000.53 1000.61 1000.69 1000.71 1000.67 1000.62 1000.67 1000.89 1001.35 1002.07 1002.99 1004.01 1004.99 1005.81 1006.39 1006.70 1006.77 1006.69 1006.55 1006.45 1006.46 1006.59 1006.81 1007.05 1007.26 1007.37 1007.39 1007.32 1007.21 1007.12 1007.10 1007.19 1007.39 1007.69 1008.07 1008.50 1008.97
1006.55 1006.83 1006.79 1006.39 1005.64 1004.64 1003.53 1002.46 1001.56 1000.92 1000.54 1000.38 1000.35 1000.35 1000.32 1000.21 1000.07 999.96 1000.00 1000.28 1000.83 1001.66 1002.69 1003.81 1004.86 1005.72 1006.32 1006.63 1006.70 1006.61 1006.47 1006.37 1006.38 1006.50 1006.70 1006.92 1007.10 1007.20 1007.21 1007.16 1007.09 1007.07 1007.13 1007.31 1007.60 1007.98 1008.42 1008.90 1009.41
1006.55 1006.70 1006.51 1005.98 1005.16 1004.16 1003.12 1002.16 1001.41 1000.90 1000.61 1000.49 1000.43 1000.35 1000.19 999.95 999.68 999.49 999.48 999.76 1000.35 1001.23 1002.32 1003.48 1004.57 1005.46 1006.07 1006.39 1006.48 1006.41 1006.29 1006.21 1006.22 1006.33 1006.51 1006.70 1006.85 1006.95 1006.97 1006.95 1006.94 1006.99 1007.14 1007.40 1007.77 1008.22 1008.72 1009.25 1009.80
1006.44 1006.46 1006.16 1005.55 1004.72 1003.78 1002.85 1002.05 1001.45 1001.08 1000.89 1000.79 1000.69 1000.52 1000.23 999.86 999.48 999.20 999.14 999.38 999.96 1000.84 1001.93 1003.09 1004.17 1005.05 1005.67 1006.01 1006.13 1006.10 1006.03 1005.98 1006.01 1006.11 1006.27 1006.44 1006.57 1006.65 1006.68 1006.70 1006.74 1006.86 1007.09 1007.43 1007.87 1008.38 1008.93 1009.50 1010.08
1006.22 1006.12 1005.74 1005.12 1004.33 1003.48 1002.70 1002.06 1001.62 1001.36 1001.23 1001.13 1000.98 1000.73 1000.35 999.88 999.41 999.08 998.97 999.18 999.73 1000.57 1001.61 1002.71 1003.74 1004.59 1005.20 1005.56 1005.72 1005.75 1005.73 1005.73 1005.78 1005.89 1006.03 1006.17 1006.28 1006.35 1006.38 1006.42 1006.51 1006.69 1006.97 1007.37 1007.86 1008.42 1009.01 1009.61 1010.22
1005.89 1005.71 1005.29 1004.68 1003.97 1003.25 1002.61 1002.12 1001.80 1001.62 1001.51 1001.39 1001.19 1000.87 1000.43 999.92 999.43 999.09 998.98 999.18 999.69 1000.48 1001.43 1002.45 1003.39 1004.18 1004.76 1005.12 1005.32 1005.41 1005.46 1005.51 1005.60 1005.72 1005.85 1005.96 1006.04 1006.08 1006.11 1006.16 1006.27 1006.48 1006.80 1007.24 1007.77 1008.36 1008.98 1009.62 1010.26
1005.47 1005.24 1004.82 1004.26 1003.64 1003.05 1002.55 1002.17 1001.93 1001.78 1001.65 1001.49 1001.24 1000.88 1000.42 999.93 999.50 999.22 999.17 999.39 999.89 1000.61 1001.47 1002.37 1003.20 1003.90 1004.42 1004.78 1005.01 1005.16 1005.27 1005.39 1005.51 1005.64 1005.76 1005.84 1005.88 1005.89 1005.89 1005.93 1006.05 1006.27 1006.62 1007.08 1007.63 1008.25 1008.91 1009.58 1010.25
1005.01 1004.75 1004.35 1003.86 1003.35 1002.88 1002.49 1002.20 1001.98 1001.81 1001.64 1001.42 1001.12 1000.75 1000.34 999.94 999.62 999.47 999.53 999.83 1000.34 1001.01 1001.76 1002.53 1003.23 1003.81 1004.27 1004.60 1004.85 1005.05 1005.22 1005.39 1005.54 1005.68 1005.78 1005.82 1005.82 1005.78 1005.76 1005.78 1005.89 1006.12 1006.48 1006.95 1007.53 1008.17 1008.86 1009.57 1010.28
1004.55 1004.28 1003.92 1003.52 1003.12 1002.77 1002.46 1002.21 1001.99 1001.78 1001.54 1001.26 1000.93 1000.58 1000.25 999.99 999.85 999.88 1000.10 1000.49 1001.02 1001.65 1002.31 1002.94 1003.49 1003.95 1004.32 1004.62 1004.87 1005.10 1005.31 1005.52 1005.69 1005.82 1005.89 1005.90 1005.85 1005.77 1005.72 1005.72 1005.82 1006.05 1006.42 1006.91 1007.51 1008.18 1008.91 1009.65 1010.40
1004.14 1003.89 1003.59 1003.28 1002.99 1002.73 1002.50 1002.28 1002.04 1001.78 1001.47 1001.13 1000.80 1000.50 1000.28 1000.18 1000.25 1000.48 1000.86 1001.36 1001.93 1002.51 1003.07 1003.56 1003.97 1004.30 1004.58 1004.82 1005.06 1005.29 1005.53 1005.75 1005.92 1006.04 1006.08 1006.04 1005.95 1005.85 1005.77 1005.76 1005.87 1006.11 1006.49 1007.00 1007.62 1008.33 1009.08 1009.86 1010.65
1003.85 1003.62 1003.39 1003.18 1003.00 1002.84 1002.68 1002.49 1002.24 1001.93 1001.58 1001.21 1000.88 1000.64 1000.55 1000.62 1000.88 1001.29 1001.82 1002.41 1002.99 1003.53 1003.98 1004.33 1004.60 1004.81 1004.99 1005.17 1005.37 1005.60 1005.83 1006.04 1006.20 1006.29 1006.29 1006.22 1006.10 1005.97 1005.89 1005.89 1006.02 1006.28 1006.69 1007.23 1007.88 1008.60 1009.39 1010.20 1011.01
1003.68 1003.49 1003.33 1003.23 1003.16 1003.12 1003.04 1002.90 1002.66 1002.34 1001.97 1001.60 1001.29 1001.13 1001.14 1001.35 1001.76 1002.30 1002.93 1003.56 1004.13 1004.59 1004.93 1005.16 1005.29 1005.39 1005.48 1005.60 1005.76 1005.96 1006.16 1006.35 1006.47 1006.51 1006.48 1006.38 1006.24 1006.12 1006.06 1006.09 1006.26 1006.57 1007.01 1007.57 1008.24 1008.99 1009.79 1010.61 1011.44
1003.65 1003.50 1003.42 1003.42 1003.49 1003.56 1003.59 1003.53 1003.34 1003.05 1002.69 1002.34 1002.08 1001.97 1002.06 1002.37 1002.85 1003.46 1004.12 1004.73 1005.24 1005.61 1005.84 1005.94 1005.96 1005.96 1005.97 1006.04 1006.16 1006.32 1006.49 1006.63 1006.70 1006.70 1006.63 1006.51 1006.37 1006.28 1006.25 1006.34 1006.56 1006.92 1007.40 1007.99 1008.67 1009.42 1010.22 1011.04 1011.87
1003.71 1003.60 1003.61 1003.73 1003.93 1004.14 1004.30 1004.34 1004.24 1004.02 1003.71 1003.41 1003.19 1003.12 1003.26 1003.60 1004.10 1004.69 1005.30 1005.84 1006.25 1006.51 1006.62 1006.61 1006.54 1006.47 1006.43 1006.46 1006.54 1006.66 1006.79 1006.87 1006.90 1006.85 1006.75 1006.61 1006.50 1006.43 1006.46 1006.62 1006.89 1007.30 1007.81 1008.41 1009.09 1009.84 1010.62 1011.43 1012.25
1003.81 1003.77 1003.87 1004.12 1004.45 1004.81 1005.11 1005.28 1005.29 1005.16 1004.93 1004.68 1004.51 1004.47 1004.61 1004.92 1005.37 1005.89 1006.40 1006.82 1007.10 1007.23 1007.23 1007.13 1007.00 1006.89 1006.83 1006.83 1006.90 1006.99 1007.07 1007.11 1007.08 1006.99 1006.86 1006.72 1006.63 1006.61 1006.70 1006.91 1007.24 1007.68 1008.21 1008.81 1009.47 1010.18 1010.93 1011.72 1012.52
1003.92 1003.95 1004.15 1004.52 1005.00 1005.50 1005.94 1006.24 1006.38 1006.34 1006.20 1006.02 1005.88 1005.85 1005.96 1006.21 1006.57 1006.96 1007.33 1007.60 1007.75 1007.76 1007.67 1007.51 1007.35 1007.22 1007.16 1007.17 1007.23 1007.30 1007.35 1007.35 1007.28 1007.16 1007.01 1006.87 1006.80 1006.82 1006.96 1007.21 1007.58 1008.03 1008.55 1009.12 1009.74 1010.40 1011.11 1011.86 1012.65
1004.02 1004.13 1004.44 1004.92 1005.53 1006.16 1006.72 1007.15 1007.39 1007.46 1007.40 1007.27 1007.16 1007.11 1007.17 1007.34 1007.58 1007.84 1008.06 1008.19 1008.21 1008.13 1007.97 1007.78 1007.61 1007.51 1007.47 1007.50 1007.57 1007.64 1007.67 1007.64 1007.54 1007.39 1007.23 1007.10 1007.04 1007.09 1007.25 1007.53 1007.89 1008.33 1008.81 1009.33 1009.89 1010.48 1011.14 1011.85 1012.63
1004.11 1004.31 1004.72 1005.31 1006.02 1006.75 1007.42 1007.93 1008.27 1008.41 1008.41 1008.32 1008.22 1008.16 1008.16 1008.25 1008.38 1008.51 1008.60 1008.61 1008.53 1008.38 1008.18 1007.99 1007.85 1007.77 1007.78 1007.84 1007.93 1008.00 1008.03 1007.98 1007.86 1007.70 1007.53 1007.41 1007.36 1007.42 1007.58 1007.84 1008.18 1008.57 1008.99 1009.43 1009.90 1010.43 1011.03 1011.71 1012.47
1004.23 1004.53 1005.03 1005.71 1006.50 1007.30 1008.02 1008.59 1008.97 1009.16 1009.19 1009.12 1009.02 1008.94 1008.90 1008.91 1008.95 1008.98 1008.97 1008.90 1008.77 1008.58 1008.38 1008.20 1008.09 1008.05 1008.10 1008.19 1008.30 1008.39 1008.42 1008.37 1008.25 1008.09 1007.92 1007.80 1007.75 1007.80 1007.93 1008.16 1008.43 1008.74 1009.08 1009.43 1009.81 1010.26 1010.80 1011.45 1012.20
1004.44 1004.82 1005.40 1006.15 1006.98 1007.81 1008.56 1009.14 1009.54 1009.73 1009.77 1009.70 1009.59 1009.48 1009.40 1009.36 1009.34 1009.32 1009.26 1009.14 1008.98 1008.79 1008.60 1008.45 1008.37 1008.36 1008.43 1008.55 1008.68 1008.77 1008.81 1008.77 1008.66 1008.51 1008.36 1008.24 1008.18 1008.20 1008.30 1008.46 1008.65 1008.87 1009.10 1009.35 1009.65 1010.02 1010.51 1011.12 1011.87
1004.78 1005.23 1005.86 1006.64 1007.49 1008.32 1009.05 1009.62 1010.00 1010.17 1010.19 1010.11 1009.98 1009.85 1009.75 1009.68 1009.63 1009.58 1009.51 1009.39 1009.24 1009.06 1008.89 1008.76 1008.69 1008.70 1008.77 1008.89 1009.02 1009.12 1009.16 1009.14 1009.05 1008.93 1008.79 1008.68 1008.62 1008.61 1008.65 1008.73 1008.84 1008.96 1009.09 1009.25 1009.46 1009.77 1010.21 1010.80 1011.53
1005.26 1005.75 1006.41 1007.19 1008.03 1008.83 1009.53 1010.05 1010.39 1010.53 1010.52 1010.41 1010.27 1010.12 1010.01 1009.93 1009.88 1009.84 1009.77 1009.68 1009.54 1009.39 1009.23 1009.11 1009.04 1009.04 1009.09 1009.19 1009.30 1009.39 1009.44 1009.43 1009.38 1009.29 1009.19 1009.10 1009.03 1008.99 1008.99 1009.00 1009.02 1009.04 1009.09 1009.16 1009.32 1009.57 1009.97 1010.53 1011.24
1005.85 1006.34 1007.00 1007.76 1008.57 1009.33 1009.97 1010.45 1010.74 1010.84 1010.80 1010.67 1010.50 1010.35 1010.23 1010.16 1010.13 1010.11 1010.07 1010.01 1009.91 1009.77 1009.63 1009.50 1009.41 1009.37 1009.38 1009.43 1009.50 1009.57 1009.63 1009.64 1009.63 1009.58 1009.52 1009.46 1009.40 1009.35 1009.30 1009.25 1009.21 1009.16 1009.14 1009.16 1009.27 1009.49 1009.86 1010.39 1011.08
1006.49 1006.96 1007.58 1008.30 1009.04 1009.75 1010.35 1010.78 1011.03 1011.10 1011.04 1010.90 1010.73 1010.57 1010.46 1010.40 1010.39 1010.40 1010.40 1010.37 1010.30 1010.19 1010.05 1009.91 1009.78 1009.68 1009.63 1009.62 1009.64 1009.68 1009.73 1009.77 1009.79 1009.80 1009.78 1009.76 1009.72 1009.67 1009.60 1009.52 1009.43 1009.35 1009.29 1009.28 1009.37 1009.58 1009.93 1010.44 1011.08
1007.11 1007.52 1008.07 1008.72 1009.41 1010.06 1010.61 1011.01 1011.24 1011.30 1011.24 1011.10 1010.93 1010.78 1010.68 1010.65 1010.66 1010.69 1010.73 1010.74 1010.70 1010.61 1010.47 1010.30 1010.13 1009.97 1009.85 1009.77 1009.74 1009.75 1009.78 1009.84 1009.90 1009.95 1009.99 1010.01 1010.01 1009.98 1009.92 1009.83 1009.72 1009.62 1009.55 1009.55 1009.64 1009.84 1010.19 1010.67 1011.27
1007.65 1007.97 1008.43 1009.00 1009.61 1010.20 1010.71 1011.09 1011.33 1011.41 1011.36 1011.24 1011.09 1010.97 1010.89 1010.86 1010.90 1010.97 1011.04 1011.08 1011.06 1010.99 1010.85 1010.67 1010.45 1010.24 1010.06 1009.92 1009.83 1009.80 1009.82 1009.88 1009.97 1010.07 1010.16 1010.24 1010.28 1010.28 1010.24 1010.16 1010.07 1009.98 1009.93 1009.95 1010.06 1010.29 1010.64 1011.10 1011.65
1008.07 1008.28 1008.64 1009.10 1009.63 1010.17 1010.65 1011.03 1011.28 1011.39 1011.38 1011.30 1011.19 1011.09 1011.04 1011.04 1011.09 1011.18 1011.28 1011.35 1011.36 1011.31 1011.18 1010.99 1010.75 1010.50 1010.26 1010.07 1009.93 1009.86 1009.87 1009.93 1010.04 1010.18 1010.32 1010.44 1010.53 1010.57 1010.56 1010.52 1010.46 1010.41 1010.40 1010.45 1010.60 1010.85 1011.20 1011.65 1012.16
Thickness
5843 5845 5846 5841 5822 5810 5811 5835 5846 5840 5840 5848 5849 5842 5828 5817 5805 5790 5820 5830 5823 5813 5804 5797 5792 5789 5786 5783 5781 5778 5776 5774 5773 5772 5771 5770 5769 5769 5768 5767 5767 5767 5767 5767 5766 5765 5765 5765 5765
5848 5850 5845 5834 5809 5791 5810 5839 5839 5840 5846 5852 5849 5842 5829 5820 5825 5821 5824 5826 5822 5813 5804 5797 5791 5787 5784 5781 5779 5776 5774 5772 5771 5770 5769 5768 5767 5767 5766 5765 5765 5765 5765 5764 5764 5763 5763 5763 5763
5847 5851 5837 5828 5809 5801 5813 5839 5843 5849 5855 5850 5841 5838 5827 5818 5825 5823 5825 5827 5820 5812 5803 5795 5790 5786 5783 5780 5777 5775 5773 5771 5769 5768 5767 5766 5765 5764 5764 5763 5763 5763 5763 5762 5761 5761 5761 5761 5761
5846 5846 5838 5821 5813 5830 5840 5846 5850 5847 5848 5851 5842 5827 5827 5833 5830 5828 5830 5826 5818 5811 5803 5794 5789 5785 5782 5779 5776 5774 5772 5770 5768 5766 5765 5764 5763 5762 5761 5761 5761 5761 5761 5760 5759 5759 5758 5759 5759
5848 5837 5821 5812 5820 5842 5854 5857 5856 5845 5839 5844 5839 5820 5816 5831 5836 5833 5829 5825 5817 5810 5802 5794 5788 5784 5781 5778 5775 5772 5770 5768 5767 5765 5764 5762 5762 5761 5760 5759 5759 5759 5759 5758 5757 5757 5756 5757 5757
5835 5836 5810 5804 5821 5846 5856 5861 5856 5846 5843 5843 5834 5820 5815 5831 5830 5829 5829 5824 5820 5811 5802 5793 5787 5783 5780 5776 5774 5771 5769 5767 5766 5764 5763 5762 5761 5760 5758 5758 5757 5757 5757 5757 5756 5755 5755 5755 5756
5828 5824 5814 5818 5826 5839 5853 5863 5853 5845 5840 5842 5841 5819 5816 5825 5829 5830 5828 5825 5820 5812 5803 5794 5787 5783 5779 5776 5773 5770 5768 5766 5765 5763 5762 5761 5760 5759 5758 5757 5756 5756 5756 5756 5755 5754 5754 5754 5754
5843 5827 5817 5824 5829 5838 5857 5860 5858 5848 5842 5854 5848 5820 5811 5822 5831 5830 5826 5822 5817 5811 5804 5797 5791 5785 5781 5776 5772 5770 5767 5765 5764 5763 5762 5761 5760 5759 5758 5757 5756 5756 5756 5756 5755 5754 5754 5753 5753
5845 5817 5811 5825 5834 5841 5856 5852 5855 5859 5849 5846 5844 5835 5828 5831 5830 5824 5818 5814 5811 5806 5803 5798 5793 5788 5784 5779 5774 5770 5767 5765 5763 5762 5762 5761 5760 5760 5759 5758 5758 5757 5757 5758 5757 5755 5754 5753 5752
5834 5811 5821 5846 5851 5849 5853 5850 5850 5845 5834 5830 5829 5829 5831 5829 5824 5817 5812 5807 5804 5802 5801 5799 5794 5789 5786 5781 5775 5772 5769 5765 5764 5763 5762 5761 5761 5760 5760 5760 5759 5757 5758 5758 5757 5755 5754 5752 5752
5835 5822 5835 5849 5856 5854 5848 5847 5852 5838 5824 5827 5822 5822 5826 5824 5820 5815 5811 5808 5805 5803 5800 5797 5793 5789 5785 5781 5776 5773 5770 5767 5765 5763 5762 5761 5761 5760 5760 5760 5758 5756 5757 5758 5757 5755 5753 5752 5752
5834 5835 5844 5847 5853 5848 5843 5844 5842 5838 5833 5839 5836 5831 5825 5820 5817 5813 5809 5808 5805 5802 5798 5796 5792 5788 5784 5781 5777 5773 5771 5768 5765 5762 5762 5760 5759 5759 5758 5758 5757 5756 5756 5756 5755 5754 5753 5751 5751
5832 5835 5844 5848 5848 5846 5841 5836 5836 5836 5844 5843 5838 5829 5822 5817 5815 5814 5811 5807 5804 5799 5796 5793 5790 5785 5781 5778 5775 5773 5770 5767 5765 5762 5760 5759 5758 5756 5756 5755 5755 5755 5755 5755 5753 5753 5751 5750 5749
5834 5837 5840 5843 5843 5842 5833 5832 5831 5833 5843 5838 5830 5823 5820 5817 5814 5809 5805 5800 5799 5796 5793 5791 5787 5782 5778 5775 5772 5770 5769 5765 5764 5761 5759 5757 5756 5754 5754 5753 5752 5752 5752 5753 5752 5750 5749 5748 5747
5836 5825 5826 5834 5838 5838 5832 5816 5824 5835 5837 5830 5826 5821 5819 5817 5813 5807 5803 5799 5797 5793 5790 5787 5784 5779 5775 5772 5770 5768 5765 5764 5762 5760 5757 5755 5753 5752 5751 5750 5750 5750 5750 5750 5749 5748 5747 5746 5745
5822 5811 5803 5825 5834 5836 5820 5798 5822 5837 5830 5823 5822 5820 5816 5814 5812 5808 5805 5799 5796 5792 5787 5784 5782 5776 5772 5769 5767 5766 5763 5761 5760 5758 5755 5753 5751 5749 5748 5748 5747 5747 5748 5747 5746 5745 5744 5743 5742
5805 5795 5799 5815 5832 5830 5819 5805 5821 5834 5828 5819 5818 5816 5813 5808 5807 5807 5804 5798 5794 5789 5784 5779 5777 5772 5769 5766 5764 5762 5760 5758 5757 5755 5753 5751 5750 5748 5746 5745 5745 5745 5745 5744 5744 5743 5742 5739 5739
5793 5799 5804 5806 5823 5824 5815 5811 5820 5827 5826 5819 5815 5812 5809 5803 5803 5804 5801 5797 5791 5786 5781 5776 5772 5769 5766 5763 5761 5758 5756 5754 5753 5752 5750 5748 5747 5746 5744 5743 5742 5743 5742 5740 5740 5739 5739 5737 5736
5807 5805 5806 5813 5828 5819 5809 5808 5816 5822 5820 5816 5813 5810 5807 5803 5803 5801 5797 5792 5786 5781 5775 5771 5767 5764 5762 5758 5754 5751 5749 5750 5749 5749 5747 5746 5744 5743 5742 5741 5740 5740 5738 5737 5737 5736 5734 5733 5734
5803 5800 5803 5814 5825 5815 5806 5805 5814 5818 5815 5816 5811 5805 5803 5798 5795 5793 5789 5785 5780 5775 5771 5767 5763 5760 5757 5755 5753 5751 5748 5747 5746 5746 5744 5743 5742 5740 5740 5738 5737 5736 5735 5734 5734 5733 5731 5731 5731
5798 5798 5800 5803 5812 5814 5801 5789 5799 5809 5814 5813 5812 5808 5801 5794 5790 5786 5782 5779 5775 5770 5766 5763 5759 5756 5753 5751 5749 5747 5744 5743 5741 5740 5740 5740 5739 5738 5736 5736 5735 5734 5733 5731 5730 5730 5728 5726 5727
5789 5807 5804 5801 5792 5787 5788 5764 5783 5794 5796 5801 5803 5802 5798 5792 5787 5782 5778 5775 5771 5768 5765 5760 5756 5752 5749 5747 5743 5740 5736 5734 5734 5735 5735 5735 5735 5734 5734 5733 5732 5730 5730 5728 5728 5728 5727 5725 5723
5796 5808 5802 5796 5788 5781 5784 5771 5776 5788 5781 5788 5796 5796 5793 5790 5785 5779 5775 5773 5770 5766 5762 5757 5752 5748 5745 5742 5739 5735 5733 5732 5732 5732 5730 5730 5730 5730 5730 5729 5728 5727 5726 5725 5725 5725 5724 5724 5721
5805 5799 5795 5793 5785 5759 5773 5767 5764 5779 5780 5785 5790 5791 5788 5786 5782 5777 5773 5771 5766 5763 5757 5752 5746 5742 5740 5737 5735 5732 5729 5728 5726 5725 5724 5724 5725 5726 5726 5725 5724 5724 5723 5722 5722 5722 5721 5721 5720
5794 5775 5756 5751 5751 5753 5779 5771 5767 5788 5792 5790 5785 5785 5783 5781 5776 5771 5767 5764 5760 5756 5751 5746 5741 5737 5735 5733 5730 5728 5726 5724 5721 5720 5720 5719 5720 5720 5720 5721 5720 5720 5720 5720 5719 5719 5718 5718 5717
5784 5775 5748 5733 5738 5752 5769 5764 5772 5791 5794 5792 5785 5784 5779 5774 5771 5766 5763 5759 5755 5752 5747 5742 5736 5733 5731 5728 5726 5724 5722 5720 5718 5717 5716 5716 5716 5717 5716 5717 5717 5717 5717 5717 5716 5715 5715 5715 5715
5778 5777 5784 5764 5756 5749 5758 5764 5771 5784 5781 5779 5775 5774 5772 5769 5766 5761 5759 5756 5751 5747 5742 5738 5733 5729 5727 5724 5722 5719 5718 5715 5714 5713 5712 5712 5712 5713 5713 5713 5713 5713 5712 5712 5712 5711 5712 5712 5712
5789 5783 5771 5756 5736 5731 5743 5748 5749 5759 5762 5767 5766 5764 5766 5764 5760 5758 5755 5751 5747 5742 5738 5734 5730 5725 5723 5721 5718 5716 5713 5712 5711 5709 5707 5707 5707 5708 5707 5707 5708 5708 5708 5708 5708 5708 5709 5708 5708
5777 5774 5767 5759 5752 5732 5722 5733 5762 5761 5764 5762 5763 5764 5762 5758 5754 5751 5748 5745 5741 5736 5732 5728 5725 5722 5719 5716 5714 5711 5709 5708 5706 5705 5704 5703 5703 5702 5702 5702 5703 5703 5703 5704 5704 5704 5704 5704 5704
5781 5772 5764 5740 5737 5742 5730 5732 5768 5766 5765 5763 5760 5759 5757 5753 5749 5746 5742 5738 5734 5730 5726 5723 5720 5717 5715 5712 5709 5706 5704 5703 5701 5700 5699 5699 5698 5698 5698 5698 5697 5698 5699 5699 5699 5699 5700 5700 5700